This demonstration page uses our WeatherBlox Daily Observations layout. Learn more.

Left ArrowRight Arrow

40.92945, -100.16068

Hourly Observations for May 1, 2015

Temp ( °F °C ) Dew Point ( °F °C ) Humidity (%) Winds ( mph kmh ) Pressure ( in mb ) Visibility ( mi km ) Precip ( " mm )
12:15 am 00:15 Clear 62 16.7 44 6.6 52 52 SE 9 15 29.94 1014 10 16.0934 N/A
12:35 am 00:35 Partly Cloudy 62 16.5 44 6.8 53 53 ESE 6 9 29.97 1015 10 16.0934 N/A
12:55 am 00:55 Cloudy 61 15.9 45 7 56 56 N 10 17 30 1016 10 16.0934 N/A
1:15 am 01:15 Cloudy with Light Rain 62 16.7 45 7.4 54 54 WNW 6 9 29.97 1015 10 16.0934 N/A
1:35 am 01:35 Cloudy with Light Rain 59 15 49 9.5 70 70 N 3 6 30 1016 7 11.26538 0.01 0.254
1:55 am 01:55 Cloudy with Rain 58 14.3 51 10.3 77 77 N N/A 30 1016 10 16.0934 0.02 0.508
2:15 am 02:15 Partly Cloudy 56 13.6 51 10.5 82 82 ESE 8 13 30 1016 10 16.0934 N/A
2:35 am 02:35 Mostly Cloudy 58 14.7 50 10.1 74 74 SE 8 13 29.97 1015 10 16.0934 N/A
2:55 am 02:55 Mostly Cloudy 59 15.2 48 9 67 67 SE 12 19 29.97 1015 10 16.0934 0.01 0.254
3:15 am 03:15 Mostly Cloudy 59 15.2 48 8.9 66 66 SE 9 15 29.97 1015 10 16.0934 N/A
3:35 am 03:35 Cloudy with Nearby Thunderstorms 59 15 48 9.1 68 68 SE 9 15 29.97 1015 10 16.0934 N/A
3:55 am 03:55 Cloudy with Light Rain 58 14.2 49 9.2 72 72 ESE 5 7 29.97 1015 10 16.0934 N/A
4:15 am 04:15 Cloudy with Light Thunderstorms 56 13.5 50 9.9 79 79 E 8 13 30 1016 10 16.0934 0.01 0.254
4:35 am 04:35 Cloudy with Light Rain 55 13 50 10.1 83 83 ENE 8 13 30.03 1017 10 16.0934 0.02 0.508
4:55 am 04:55 Cloudy 55 12.8 50 10.1 84 84 E 8 13 30.03 1017 10 16.0934 0.02 0.508
5:15 am 05:15 Cloudy 55 12.6 50 10 84 84 E 10 17 30.03 1017 10 16.0934 N/A
5:35 am 05:35 Partly Cloudy 55 12.5 49 9.4 82 82 E 7 11 30.03 1017 10 16.0934 N/A
5:55 am 05:55 Mostly Cloudy 55 12.5 49 9.3 81 81 E 9 15 30.03 1017 10 16.0934 N/A
6:15 am 06:15 Partly Cloudy 55 12.5 48 9.1 80 80 E 7 11 30.03 1017 10 16.0934 N/A
6:35 am 06:35 Partly Cloudy 54 12.3 49 9.2 82 82 ENE 3 6 30.03 1017 10 16.0934 N/A
6:55 am 06:55 Partly Cloudy 53 11.6 49 9.3 86 86 ENE 5 7 30.03 1017 10 16.0934 N/A
7:15 am 07:15 Partly Cloudy 53 11.5 49 9.6 88 88 NE 3 6 30.03 1017 10 16.0934 N/A
7:35 am 07:35 Partly Cloudy 54 12.1 50 10.1 88 88 N 8 13 30.03 1017 10 16.0934 N/A
7:55 am 07:55 Sunny 55 12.5 50 10.2 86 86 NNE 13 20 30.03 1017 10 16.0934 N/A
8:15 am 08:15 Sunny 54 12.3 50 10 86 86 NNE 9 15 30.03 1017 10 16.0934 N/A
8:35 am 08:35 Sunny 54 12.2 50 10 87 87 NNE 9 15 30.03 1017 10 16.0934 N/A
8:55 am 08:55 Sunny 56 13.4 52 11 86 86 NNE 12 19 30.03 1017 10 16.0934 N/A
9:15 am 09:15 Sunny 57 13.8 52 11.2 84 84 N 12 19 30 1016 10 16.0934 N/A
9:35 am 09:35 Sunny 58 14.5 52 11.1 80 80 NNE 13 20 30 1016 10 16.0934 N/A
9:55 am 09:55 Sunny 60 15.5 53 11.6 78 78 NNE 10 17 30.03 1017 10 16.0934 N/A
10:15 am 10:15 Sunny 60 15.7 54 12.2 80 80 N 10 17 30.03 1017 10 16.0934 N/A
10:35 am 10:35 Sunny 61 16.1 54 12.1 77 77 N 7 11 30.03 1017 10 16.0934 N/A
10:55 am 10:55 Sunny 62 16.7 54 12.4 76 76 NNW 6 9 30.03 1017 10 16.0934 N/A
11:15 am 11:15 Sunny 63 17.3 54 12 71 71 N 7 11 30.03 1017 10 16.0934 N/A
11:35 am 11:35 Sunny 65 18.3 54 12.4 69 69 N 9 15 30 1016 10 16.0934 N/A
11:55 am 11:55 Sunny 66 18.7 55 12.5 67 67 N 7 11 30 1016 10 16.0934 N/A
12:15 pm 12:15 Sunny 67 19.4 55 12.6 65 65 NNW 8 13 30 1016 10 16.0934 N/A
12:35 pm 12:35 Sunny 68 20 55 12.5 62 62 NNW 9 15 30 1016 10 16.0934 N/A
12:55 pm 12:55 Partly Cloudy 69 20.6 54 12.1 58 58 NW 5 7 29.97 1015 10 16.0934 N/A
1:15 pm 13:15 Partly Cloudy 70 21.1 55 12.5 58 58 N 9 15 29.94 1014 10 16.0934 N/A
1:35 pm 13:35 Mostly Cloudy 70 21.1 54 12 56 56 NE 9 15 29.94 1014 10 16.0934 N/A
1:55 pm 13:55 Cloudy 71 21.5 53 11.8 54 54 NNE 5 7 29.94 1014 10 16.0934 N/A
2:15 pm 14:15 Cloudy 71 21.6 52 11.3 52 52 NNE 6 9 29.94 1014 10 16.0934 N/A
2:35 pm 14:35 Cloudy 72 22 54 12 53 53 N 7 11 29.94 1014 10 16.0934 N/A
2:55 pm 14:55 Mostly Cloudy 72 22.3 54 12.1 53 53 ENE 3 6 29.94 1014 10 16.0934 N/A
3:15 pm 15:15 Partly Cloudy 73 22.6 52 10.9 48 48 N N/A 29.94 1014 10 16.0934 N/A
3:35 pm 15:35 Sunny 73 23 53 11.4 48 48 ENE 3 6 29.94 1014 10 16.0934 N/A
3:55 pm 15:55 Sunny 74 23.4 53 11.5 47 47 N N/A 29.94 1014 10 16.0934 N/A
4:15 pm 16:15 Partly Cloudy 74 23.6 54 12 48 48 ESE 5 7 29.88 1012 10 16.0934 N/A
4:35 pm 16:35 Partly Cloudy 76 24.2 53 11.8 46 46 W 9 15 29.88 1012 10 16.0934 N/A
4:55 pm 16:55 Sunny 75 24 52 10.9 44 44 SE 6 9 29.88 1012 10 16.0934 N/A
5:15 pm 17:15 Sunny 76 24.4 51 10.3 41 41 N N/A 29.88 1012 10 16.0934 N/A
5:35 pm 17:35 Sunny 76 24.4 50 10 40 40 N N/A 29.88 1012 10 16.0934 N/A
5:55 pm 17:55 Sunny 75 24 50 10.1 42 42 N N/A 29.88 1012 10 16.0934 N/A
6:15 pm 18:15 Partly Cloudy 74 23.3 52 11 46 46 N N/A 29.91 1013 10 16.0934 N/A
6:35 pm 18:35 Partly Cloudy 75 23.9 52 11.2 45 45 ESE 5 7 29.85 1011 10 16.0934 N/A
6:55 pm 18:55 Sunny 75 23.8 43 6.1 32 32 SSE 14 22 29.8 1009 10 16.0934 N/A
7:15 pm 19:15 Mostly Cloudy 74 23.6 51 10.3 43 43 N N/A 29.85 1011 10 16.0934 N/A
7:35 pm 19:35 Cloudy 74 23.5 48 9 40 40 N N/A 29.85 1011 10 16.0934 N/A
7:55 pm 19:55 Cloudy 71 21.4 54 12.2 56 56 E 8 13 29.91 1013 10 16.0934 N/A
8:15 pm 20:15 Mostly Cloudy 69 20.4 54 12.1 59 59 E 7 11 29.88 1012 10 16.0934 N/A
8:35 pm 20:35 Partly Cloudy 67 19.5 53 11.7 61 61 E 6 9 29.88 1012 10 16.0934 N/A
8:55 pm 20:55 Mostly Cloudy 66 19 54 12 64 64 E 7 11 29.91 1013 10 16.0934 N/A
9:15 pm 21:15 Partly Cloudy 64 18 53 11.8 67 67 E 6 9 29.91 1013 10 16.0934 N/A
9:35 pm 21:35 Mostly Cloudy 64 17.5 53 11.6 69 69 E 6 9 29.91 1013 10 16.0934 N/A
9:55 pm 21:55 Mostly Cloudy 63 17.2 53 11.9 71 71 E 6 9 29.94 1014 10 16.0934 N/A
10:15 pm 22:15 Mostly Cloudy 64 17.7 53 11.8 69 69 ESE 5 7 29.94 1014 10 16.0934 N/A
10:35 pm 22:35 Cloudy 65 18.6 53 11.4 63 63 SE 5 7 29.94 1014 10 16.0934 N/A
10:55 pm 22:55 Mostly Cloudy 66 19 52 11 60 60 SE 6 9 29.94 1014 10 16.0934 N/A
11:15 pm 23:15 Mostly Cloudy 66 18.9 51 10.8 60 60 SE 7 11 29.94 1014 10 16.0934 N/A
11:35 pm 23:35 Cloudy 66 18.9 52 10.9 60 60 ESE 9 15 29.94 1014 10 16.0934 N/A
11:55 pm 23:55 Cloudy 66 18.8 51 10.8 60 60 ESE 8 13 29.91 1013 10 16.0934 N/A

Powered by AerisWeather